CGJUF CYYJ-CYVR

Flight info

Callsign CGJUF
Flight time 0h 23m
Altitude 5000
Route OMVEX
Aircraft C172/L-SFG/C

Departure

Time 2026-05-03 23:40
Airport Victoria International Airport (CYYJ)

Arrival

Time 2026-05-04 00:04
Airport Vancouver International Airport (CYVR)
Time Latitude Longitude Altitude Speed Heading
2026-05-03 23:27 48.64552 -123.42201 51 ft 0 kts 14°
2026-05-03 23:36 48.64617 -123.42254 51 ft 19 kts
2026-05-03 23:36 48.64710 -123.42170 51 ft 17 kts
2026-05-03 23:37 48.64754 -123.42317 51 ft 20 kts 287°
2026-05-03 23:37 48.64804 -123.42576 51 ft 27 kts 285°
2026-05-03 23:37 48.64853 -123.42833 51 ft 29 kts 286°
2026-05-03 23:37 48.64916 -123.43161 51 ft 36 kts 285°
2026-05-03 23:38 48.64978 -123.43488 50 ft 34 kts 285°
2026-05-03 23:38 48.65028 -123.43753 49 ft 17 kts 285°
2026-05-03 23:38 48.65061 -123.43862 49 ft 0 kts 329°
2026-05-03 23:39 48.65077 -123.43876 49 ft 12 kts 329°
2026-05-03 23:39 48.65164 -123.43841 47 ft 22 kts 102°
2026-05-03 23:40 48.65081 -123.43392 52 ft 81 kts 106°
2026-05-03 23:40 48.64883 -123.42434 354 ft 100 kts 107°
2026-05-03 23:40 48.64666 -123.41425 656 ft 108 kts 102°
2026-05-03 23:40 48.64479 -123.40318 1080 ft 110 kts 101°
2026-05-03 23:41 48.64260 -123.39173 1472 ft 114 kts 103°
2026-05-03 23:41 48.64012 -123.38043 1900 ft 114 kts 105°
2026-05-03 23:41 48.63789 -123.36890 2251 ft 115 kts 90°
2026-05-03 23:41 48.64034 -123.35752 2506 ft 115 kts 47°
2026-05-03 23:42 48.64684 -123.35196 2862 ft 107 kts
2026-05-03 23:42 48.65430 -123.35091 3163 ft 110 kts
2026-05-03 23:42 48.66214 -123.35047 3375 ft 113 kts 358°
2026-05-03 23:42 48.67017 -123.35050 3681 ft 119 kts 360°
2026-05-03 23:43 48.67858 -123.34998 4111 ft 122 kts
2026-05-03 23:43 48.68684 -123.34921 4611 ft 119 kts
2026-05-03 23:43 48.69520 -123.34884 5011 ft 129 kts
2026-05-03 23:43 48.70489 -123.34827 5031 ft 146 kts
2026-05-03 23:44 48.71521 -123.34773 5027 ft 151 kts
2026-05-03 23:44 48.72573 -123.34725 5028 ft 152 kts
2026-05-03 23:44 48.73628 -123.34674 5029 ft 152 kts
2026-05-03 23:44 48.74680 -123.34627 5029 ft 151 kts
2026-05-03 23:45 48.75656 -123.34581 5019 ft 131 kts
2026-05-03 23:45 48.76539 -123.34544 5010 ft 124 kts
2026-05-03 23:45 48.77394 -123.34507 5012 ft 122 kts
2026-05-03 23:45 48.78240 -123.34467 5015 ft 122 kts
2026-05-03 23:46 48.79085 -123.34424 5015 ft 121 kts
2026-05-03 23:46 48.79925 -123.34382 5014 ft 121 kts
2026-05-03 23:46 48.80766 -123.34341 5012 ft 120 kts
2026-05-03 23:46 48.81592 -123.34300 5011 ft 120 kts
2026-05-03 23:47 48.82412 -123.34146 5010 ft 119 kts 17°
2026-05-03 23:47 48.83210 -123.33786 5011 ft 120 kts 14°
2026-05-03 23:47 48.84012 -123.33450 5012 ft 120 kts 15°
2026-05-03 23:47 48.84815 -123.33116 5011 ft 119 kts 14°
2026-05-03 23:48 48.85617 -123.32782 5012 ft 119 kts 15°
2026-05-03 23:48 48.86418 -123.32443 5013 ft 119 kts 15°
2026-05-03 23:48 48.87247 -123.32093 5017 ft 126 kts 15°
2026-05-03 23:48 48.88098 -123.31733 5016 ft 128 kts 15°
2026-05-03 23:49 48.88960 -123.31366 5017 ft 128 kts 15°
2026-05-03 23:49 48.89805 -123.31009 5018 ft 127 kts 15°
2026-05-03 23:49 48.90661 -123.30648 5017 ft 128 kts 15°
2026-05-03 23:49 48.91520 -123.30285 5017 ft 128 kts 15°
2026-05-03 23:50 48.92374 -123.29924 5019 ft 127 kts 15°
2026-05-03 23:50 48.93235 -123.29559 5020 ft 129 kts 15°
2026-05-03 23:50 48.94105 -123.29191 5022 ft 130 kts 15°
2026-05-03 23:50 48.94972 -123.28824 5015 ft 129 kts 15°
2026-05-03 23:51 48.95837 -123.28461 5012 ft 129 kts 15°
2026-05-03 23:51 48.96701 -123.28093 5012 ft 129 kts 15°
2026-05-03 23:51 48.97563 -123.27728 5012 ft 128 kts 15°
2026-05-03 23:51 48.98420 -123.27361 5013 ft 128 kts 15°
2026-05-03 23:52 48.99112 -123.26561 5002 ft 130 kts 60°
2026-05-03 23:52 48.99492 -123.25312 5009 ft 130 kts 62°
2026-05-03 23:52 48.99903 -123.23999 4695 ft 144 kts 63°
2026-05-03 23:52 49.00338 -123.22607 4376 ft 146 kts 61°
2026-05-03 23:53 49.00742 -123.21193 4083 ft 145 kts 65°
2026-05-03 23:53 49.01117 -123.19776 3788 ft 146 kts 66°
2026-05-03 23:53 49.01497 -123.18342 3502 ft 146 kts 65°
2026-05-03 23:53 49.01881 -123.16906 3213 ft 147 kts 66°
2026-05-03 23:54 49.02260 -123.15460 2924 ft 147 kts 65°
2026-05-03 23:54 49.02636 -123.14027 2715 ft 144 kts 66°
2026-05-03 23:54 49.03011 -123.12619 2513 ft 143 kts 65°
2026-05-03 23:54 49.03386 -123.11214 2317 ft 143 kts 65°
2026-05-03 23:55 49.03754 -123.09812 2111 ft 143 kts 65°
2026-05-03 23:55 49.04126 -123.08428 1996 ft 136 kts 58°
2026-05-03 23:55 49.04782 -123.07513 1990 ft 129 kts 31°
2026-05-03 23:55 49.05502 -123.06717 1988 ft 128 kts 33°
2026-05-03 23:56 49.06216 -123.05907 1993 ft 129 kts 34°
2026-05-03 23:56 49.06939 -123.05075 1997 ft 131 kts 31°
2026-05-03 23:56 49.07669 -123.04229 1994 ft 133 kts 31°
2026-05-03 23:56 49.08404 -123.03374 1994 ft 132 kts 34°
2026-05-03 23:57 49.09155 -123.02557 1997 ft 133 kts 31°
2026-05-03 23:57 49.09894 -123.01725 1995 ft 131 kts 31°
2026-05-03 23:57 49.10622 -123.00907 1999 ft 127 kts 32°
2026-05-03 23:57 49.11338 -123.00119 1990 ft 127 kts 32°
2026-05-03 23:58 49.12048 -122.99301 1992 ft 129 kts 32°
2026-05-03 23:58 49.12752 -122.98470 1995 ft 128 kts 34°
2026-05-03 23:58 49.13474 -122.97654 1996 ft 129 kts 30°
2026-05-03 23:58 49.14201 -122.96836 1994 ft 128 kts 32°
2026-05-03 23:59 49.14971 -122.96313 1997 ft 118 kts 352°
2026-05-03 23:59 49.15598 -122.96960 1976 ft 112 kts 306°
2026-05-03 23:59 49.16061 -122.97903 2017 ft 112 kts 306°
2026-05-03 23:59 49.16536 -122.98859 2070 ft 111 kts 303°
2026-05-04 00:00 49.16913 -122.99861 2167 ft 108 kts 280°
2026-05-04 00:00 49.16861 -123.01089 2026 ft 121 kts 270°
2026-05-04 00:00 49.16904 -123.02356 1846 ft 120 kts 275°
2026-05-04 00:00 49.17012 -123.03602 1742 ft 117 kts 280°
2026-05-04 00:01 49.17147 -123.04814 1581 ft 115 kts 281°
2026-05-04 00:01 49.17270 -123.06007 1403 ft 112 kts 282°
2026-05-04 00:01 49.17432 -123.07144 1314 ft 108 kts 283°
2026-05-04 00:01 49.17574 -123.08271 1185 ft 108 kts 281°
2026-05-04 00:02 49.17717 -123.09395 1041 ft 107 kts 280°
2026-05-04 00:02 49.17851 -123.10445 855 ft 98 kts 280°
2026-05-04 00:02 49.17944 -123.11441 670 ft 94 kts 277°
2026-05-04 00:02 49.18037 -123.12389 574 ft 87 kts 284°
2026-05-04 00:03 49.18144 -123.13325 484 ft 92 kts 282°
2026-05-04 00:03 49.18267 -123.14289 395 ft 90 kts 281°
2026-05-04 00:03 49.18364 -123.15162 199 ft 77 kts 280°
2026-05-04 00:03 49.18456 -123.15938 47 ft 71 kts 277°
2026-05-04 00:04 49.18527 -123.16567 11 ft 41 kts 281°
2026-05-04 00:04 49.18553 -123.16803 11 ft 18 kts 278°
2026-05-04 00:04 49.18597 -123.17155 13 ft 46 kts 281°
2026-05-04 00:04 49.18631 -123.17494 14 ft 25 kts 266°
2026-05-04 00:05 49.18526 -123.17699 13 ft 4 kts 216°
2026-05-04 00:06 49.18487 -123.17742 13 ft 19 kts 193°
2026-05-04 00:06 49.18454 -123.17611 13 ft 14 kts 97°
2026-05-04 00:06 49.18430 -123.17392 13 ft 19 kts 103°
2026-05-04 00:06 49.18297 -123.17211 13 ft 30 kts 142°
2026-05-04 00:07 49.18261 -123.17019 13 ft 19 kts 98°
2026-05-04 00:07 49.18244 -123.16707 13 ft 31 kts 96°
2026-05-04 00:07 49.18224 -123.16370 13 ft 28 kts 96°
2026-05-04 00:07 49.18145 -123.16199 13 ft 18 kts 100°
2026-05-04 00:08 49.18129 -123.16044 13 ft 11 kts 102°
2026-05-04 00:08 49.18125 -123.16009 13 ft 0 kts 99°